Effective Sunday, March 17, 2024, the National Weather Service National Data Buoy Center will discontinue its Dial-A-Buoy Interactive Voice Response system. For more information, see Service Change Notice 24-06 (PDF).

Station CNDO1 - 9063063 - Cleveland, OH Image indicating link to RSS feed of recent meteorological observations for station CNDO1


Conditions at CNDO1 as of
(4:30 pm EST)
2130 GMT on 02/21/2024:
     

Click on the graph icon in the table below to see a time series plot of the last five days of that observation.

5-day plot - Wind Direction Wind Direction (WDIR): S ( 190 deg true )
5-day plot - Wind Speed Wind Speed (WSPD): 4.1 kts
5-day plot - Wind Gust Wind Gust (GST): 8.0 kts
5-day plot - Atmospheric Pressure Atmospheric Pressure (PRES):29.94 in
5-day plot - Air Temperature Air Temperature (ATMP): 59.0 °F
5-day plot - Water Temperature Water Temperature (WTMP): 42.3 °F
5-day plot - Wind Speed at 10 Meters Wind Speed at 10 meters (WSPD10M): 3.9 kts
5-day plot - Wind Speed at 20 Meters Wind Speed at 20 meters (WSPD20M): 3.9 kts
5-day plot -  Wind Speed, Wind Gust and Atmospheric Pressure Combined plot of Wind Speed, Gust, and Air Pressure
NOS Water Level Observation Network Water Level
Previous observations
TIME
(EST)
5-day plot - Wind Direction
WDIR
 
5-day plot - Wind Speed
WSPD
kts
5-day plot - Wind Gust
GST
kts
5-day plot - Wave Height
WVHT
ft
5-day plot - Dominant Wave Period
DPD
sec
5-day plot - Average Wave Period
APD
sec
5-day plot - Mean Wave Direction
MWD
 
5-day plot - Atmospheric Pressure
PRES
in
5-day plot - Pressure Tendency
PTDY
in
5-day plot - Air Temperature
ATMP
°F
5-day plot - Water Temperature
WTMP
°F
5-day plot - Dew Point
DEWP
°F
5-day plot - Salinity
SAL
psu
5-day plot - Visibility
VIS
nmi
5-day plot - Tide (above MLLW)
TIDE
ft
2024-02-21 04:24 pmSSW 4.1 7.0----29.94- 58.8 42.1----
2024-02-21 04:18 pm S 2.9 8.0----29.94- 58.6 42.1----
2024-02-21 04:12 pmSSW 5.1 9.9----29.95- 58.5 42.3----
2024-02-21 04:06 pm S 6.0 14.0----29.95- 58.3 42.1----
2024-02-21 04:00 pm S 4.1 11.1----29.95-0.09 58.3 42.1----
2024-02-21 03:54 pmSSW 4.1 8.9----29.95- 58.6 42.1----
2024-02-21 03:48 pm S 4.1 14.0----29.96- 59.2 42.3----
2024-02-21 03:42 pmSSW 4.1 11.1----29.96- 59.2 42.3----
2024-02-21 03:36 pm SW 7.0 11.1----29.96- 59.2 42.3----
2024-02-21 03:30 pm SW 7.0 14.0----29.96- 59.5 42.3----
2024-02-21 03:24 pm SW 6.0 15.9----29.96- 59.2 42.1----
2024-02-21 03:18 pmSSW 7.0 14.0----29.97- 59.5 42.1----
2024-02-21 03:12 pm SW 7.0 13.0----29.97- 59.9 42.3----
2024-02-21 03:06 pmSSW 5.1 8.9----29.97- 60.1 42.1----
2024-02-21 03:00 pmSSW 6.0 13.0----29.97-0.11 59.7 42.3----
2024-02-21 02:54 pmSSW 2.9 7.0----29.98- 60.1 42.3----
2024-02-21 02:48 pmSSW 4.1 12.0----29.98- 58.5 42.3----
2024-02-21 02:42 pm SW 5.1 12.0----29.98- 59.0 42.1----
2024-02-21 02:36 pm SW 8.0 13.0----29.98- 58.8 42.1----
2024-02-21 02:30 pm S 6.0 15.0----29.99- 59.4 42.1----
2024-02-21 02:24 pm SW 8.0 13.0----29.99- 59.7 42.1----
2024-02-21 02:18 pmSSW 6.0 15.0----30.00- 58.5 42.1----
2024-02-21 02:12 pmSSW 6.0 14.0----30.00- 58.5 42.1----
2024-02-21 02:06 pm SW 8.9 13.0----30.01- 58.1 42.1----
2024-02-21 02:00 pm SW 6.0 15.9----30.01-0.09 57.4 42.1----
2024-02-21 01:54 pm SW 7.0 18.1----30.02- 57.2 42.1----
2024-02-21 01:48 pm SW 8.0 13.0----30.02- 57.0 42.1----
2024-02-21 01:42 pmSSW 8.9 15.9----30.02- 57.2 42.1----
2024-02-21 01:36 pm SW 8.9 15.0----30.03- 57.4 42.1----
2024-02-21 01:30 pm SW 11.1 15.9----30.03- 57.4 42.1----
2024-02-21 01:24 pm SW 8.9 17.1----30.03- 57.6 42.1----
2024-02-21 01:18 pm SW 8.9 15.0----30.03- 57.4 42.1----
2024-02-21 01:12 pm SW 8.9 15.9----30.04- 57.4 42.1----
2024-02-21 01:06 pm SW 8.9 15.0----30.04- 57.4 42.1----
2024-02-21 01:00 pmSSW 8.0 12.0----30.04-0.07 57.2 42.1----
2024-02-21 12:54 pmSSW 6.0 15.9----30.05- 56.5 42.1----
2024-02-21 12:48 pmSSW 7.0 13.0----30.05- 56.8 42.1----
2024-02-21 12:42 pm SW 6.0 17.1----30.05- 56.5 42.1----
2024-02-21 12:36 pmSSW 4.1 11.1----30.06- 56.3 41.9----
2024-02-21 12:30 pm SW 7.0 13.0----30.06- 55.9 42.1----
2024-02-21 12:24 pmSSW 6.0 12.0----30.07- 55.6 42.1----
2024-02-21 12:18 pm SW 8.0 11.1----30.07- 55.6 42.1----
2024-02-21 12:12 pm S 4.1 13.0----30.07- 54.9 42.1----
2024-02-21 12:06 pmSSW 5.1 11.1----30.07- 55.0 42.1----
2024-02-21 12:00 pm SW 8.9 15.9----30.08-0.05 54.5 42.1----
2024-02-21 11:54 amSSW 7.0 14.0----30.09- 54.7 42.1----
2024-02-21 11:48 amSSW 6.0 17.1----30.09- 54.7 42.1----
2024-02-21 11:42 am SW 6.0 15.0----30.09- 54.9 42.1----
2024-02-21 11:36 am SW 5.1 12.0----30.09- 55.0 42.1----
2024-02-21 11:30 am S 5.1 8.9----30.09- 55.4 42.1----
2024-02-21 11:24 amSSW 5.1 8.9----30.10- 54.0 42.1----
2024-02-21 11:18 am S 4.1 9.9----30.10- 52.9 42.1----
2024-02-21 11:12 am S 5.1 14.0----30.10- 52.5 42.1----
2024-02-21 11:06 amSSW 5.1 11.1----30.10- 52.5 42.1----
2024-02-21 11:00 am S 5.1 15.0----30.11-0.03 51.8 42.1----
2024-02-21 10:54 amSSW 5.1 13.0----30.11- 52.0 42.1----
2024-02-21 10:48 am S 5.1 14.0----30.11- 52.0 42.1----
2024-02-21 10:42 amSSW 5.1 8.9----30.11- 52.3 42.1----
2024-02-21 10:36 am S 5.1 9.9----30.11- 51.8 42.1----
2024-02-21 10:30 amSSW 4.1 8.9----30.11- 51.3 42.1----
2024-02-21 10:24 am S 6.0 9.9----30.11- 50.4 42.1----
2024-02-21 10:18 amSSW 4.1 8.9----30.11- 49.8 42.1----
2024-02-21 10:12 am S 5.1 8.9----30.12- 49.1 42.1----
2024-02-21 10:06 am S 5.1 8.0----30.12- 49.6 42.1----
2024-02-21 10:00 am S 1.9 11.1----30.12-0.02- 41.9----
2024-02-21 09:54 am S 4.1 8.0----30.12-- 41.9----
2024-02-21 09:48 am S 4.1 8.0----30.12- 47.5 41.9----
2024-02-21 09:42 am SE 1.0 8.9----30.12- 47.5 42.1----
2024-02-21 09:36 am S 2.9 8.0----30.13- 46.9 42.1----
2024-02-21 09:30 amSSE 1.9 8.0----30.13- 46.0 42.1----
2024-02-21 09:24 am S 4.1 8.0----30.13- 46.4 42.1----
2024-02-21 09:18 amSSE 4.1 8.9----30.13- 45.5 42.1----
2024-02-21 09:12 amSSE 2.9 7.0----30.13- 44.2 42.1----
2024-02-21 09:06 amSSE 5.1 8.9----30.13- 43.7 42.1----
2024-02-21 09:00 amSSE 2.9 8.9----30.13-0.02 43.7 42.1----
2024-02-21 08:54 amSSE 2.9 7.0----30.13- 43.5 42.1----
2024-02-21 08:48 am S 4.1 9.9----30.13- 42.8 42.1----
2024-02-21 08:42 amSSE 5.1 8.0----30.14- 42.8 42.1----
2024-02-21 08:36 am-------30.13- 42.4 42.1----
2024-02-21 08:30 amSSE 2.9 7.0----30.13- 41.9 42.1----
2024-02-21 08:24 am S 2.9 11.1----30.13- 41.7 42.1----
2024-02-21 08:18 am S 5.1 9.9----30.13- 41.4 42.1----
2024-02-21 08:12 amSSE 2.9 6.0----30.13- 41.2 42.1----
2024-02-21 08:06 am S 5.1 8.9----30.13- 40.8 42.1----
2024-02-21 08:00 amSSE 2.9 9.9----30.13-0.01 40.5 42.1----
2024-02-21 07:54 amSSE 2.9 8.0----30.13- 40.1 42.1----
2024-02-21 07:48 amSSE 2.9 8.0----30.13- 39.9 42.1----
2024-02-21 07:42 am S 4.1 8.0----30.13- 39.6 42.1----
2024-02-21 07:36 am S 4.1 8.9----30.14- 39.4 42.1----
2024-02-21 07:30 amSSE 2.9 6.0----30.14- 39.4 42.1----
2024-02-21 07:24 amSSE 2.9 6.0----30.14- 39.4 42.1----
2024-02-21 07:18 amSSE 2.9 6.0----30.14- 39.2 42.1----
2024-02-21 07:12 amSSE 1.9 6.0----30.14- 39.4 42.1----
2024-02-21 07:06 amSSE 2.9 6.0----30.14- 39.6 42.1----
2024-02-21 07:00 amSSE 2.9 5.1----30.14-0.01 39.7 42.3----
2024-02-21 06:54 amSSE 2.9 7.0----30.14- 39.4 42.1----
2024-02-21 06:48 amSSE 2.9 7.0----30.14- 39.2 42.1----
2024-02-21 06:42 amSSE 2.9 8.0----30.14- 39.2 42.1----
2024-02-21 06:36 amSSE 2.9 7.0----30.14- 39.2 42.1----
2024-02-21 06:30 am S 2.9 6.0----30.15- 39.2 42.1----
2024-02-21 06:24 amSSE 2.9 8.0----30.15- 39.6 42.1----
2024-02-21 06:18 amSSE 1.9 6.0----30.15- 39.4 42.1----
2024-02-21 06:12 amSSE 2.9 6.0----30.15- 39.6 42.1----
2024-02-21 06:06 amSSE 2.9 7.0----30.15- 39.4 42.1----
2024-02-21 06:00 amSSE 1.9 6.0----30.15-0.01 39.4 42.1----
2024-02-21 05:54 amSSE 2.9 7.0----30.15- 39.0 42.3----
2024-02-21 05:48 amSSE 4.1 7.0----30.15- 39.2 42.3----
2024-02-21 05:42 amSSE 2.9 5.1----30.15- 38.8 42.1----
2024-02-21 05:36 amSSE 2.9 7.0----30.15- 38.8 42.3----
2024-02-21 05:30 am S 2.9 6.0----30.15- 38.7 42.3----
2024-02-21 05:24 amSSE 2.9 6.0----30.15- 38.3 42.1----
2024-02-21 05:18 am S 2.9 7.0----30.15- 38.1 42.1----
2024-02-21 05:12 amSSE 2.9 7.0----30.15- 38.3 42.1----
2024-02-21 05:06 am S 2.9 6.0----30.15- 38.1 42.1----
2024-02-21 05:00 amSSE 1.9 6.0----30.15-0.03 38.1 42.1----
2024-02-21 04:54 amSSE 2.9 8.0----30.15- 38.3 42.1----
2024-02-21 04:48 amSSE 2.9 7.0----30.15- 38.3 42.1----
2024-02-21 04:42 amSSE 2.9 6.0----30.14- 38.3 42.1----
2024-02-21 04:36 amSSE 4.1 8.0----30.14- 38.7 42.1----
2024-02-21 04:30 amSSE 2.9 8.9----30.14- 38.5 42.1----
2024-02-21 04:24 am-------30.14- 38.8 42.1----
2024-02-21 04:18 amSSE 2.9 6.0----30.14- 39.0 42.1----
2024-02-21 04:12 amSSE 1.9 7.0----30.14- 39.0 42.1----
2024-02-21 04:06 amSSE 2.9 5.1----30.14- 39.4 42.1----
2024-02-21 04:00 amSSE 1.9 6.0----30.15-0.04 39.0 42.1----
2024-02-21 03:54 amSSE 4.1 7.0----30.15- 39.4 41.9----
2024-02-21 03:48 amSSE 4.1 7.0----30.15- 39.4 41.9----
2024-02-21 03:42 am S 4.1 7.0----30.15- 39.6 42.1----
2024-02-21 03:36 amSSE 2.9 6.0----30.15- 39.0 41.9----
2024-02-21 03:30 amSSE 1.9 5.1----30.16- 39.2 41.9----
2024-02-21 03:24 amSSE 2.9 6.0----30.16- 39.2 41.9----
2024-02-21 03:18 amSSE 2.9 6.0----30.16- 39.4 41.9----
2024-02-21 03:12 amSSE 2.9 6.0----30.16- 39.0 41.7----
2024-02-21 03:06 am S 1.9 5.1----30.16- 39.6 41.9----
2024-02-21 03:00 amSSE 2.9 5.1----30.16-0.04 39.0 41.9----
2024-02-21 02:54 amSSE 1.9 6.0----30.16- 39.4 41.7----
2024-02-21 02:48 amSSE 2.9 6.0----30.16- 39.4 41.7----
2024-02-21 02:42 amSSE 2.9 5.1----30.16- 39.4 41.7----
2024-02-21 02:36 amSSE 1.9 5.1----30.16- 39.4 41.9----
2024-02-21 02:30 amSSE 1.9 5.1----30.16- 39.4 42.1----
2024-02-21 02:24 amSSE 1.9 4.1----30.17- 39.2 42.1----
2024-02-21 02:18 amSSE 1.9 5.1----30.17- 39.6 41.9----
2024-02-21 02:12 amSSE 1.9 6.0----30.17- 39.6 41.9----
2024-02-21 02:06 amSSE 1.9 5.1----30.17- 39.7 41.9----
2024-02-21 02:00 amSSE 1.9 6.0----30.18-0.03- 41.9----
2024-02-21 01:54 amSSE 2.9 7.0----30.18-- 41.9----
2024-02-21 01:48 amSSE 2.9 5.1----30.18- 39.7 41.9----
2024-02-21 01:42 am SE 1.9 5.1----30.18- 39.6 41.9----
2024-02-21 01:36 am SE 1.9 5.1----30.18- 39.2 41.9----
2024-02-21 01:30 am- 0.0 1.9----30.18- 38.5 41.9----
2024-02-21 01:24 am- 0.0 2.9----30.18- 37.6 41.9----
2024-02-21 01:18 am- 0.0 2.9----30.19- 35.6 41.9----
2024-02-21 01:12 am- 0.0 1.0----30.19- 34.9 41.9----
2024-02-21 01:06 am- 0.0 0.0----30.19- 34.7 41.9----
2024-02-21 01:00 am- 0.0 1.9----30.19-0.02 34.7 41.9----
2024-02-21 12:54 am- 0.0 1.0----30.19- 35.1 41.9----
2024-02-21 12:48 am- 0.0 1.9----30.19- 34.9 41.9----
2024-02-21 12:42 am- 0.0 1.9----30.19- 34.9 41.9----
2024-02-21 12:36 am- 0.0 1.0----30.19- 35.2 41.9----
2024-02-21 12:30 am- 0.0 1.0----30.19- 35.2 41.9----
2024-02-21 12:24 am- 0.0 1.0----30.19- 36.0 41.9----
2024-02-21 12:18 am- 0.0 1.9----30.19- 36.3 41.9----
2024-02-21 12:12 am- 0.0 1.0----30.19- 36.7 41.9----
2024-02-21 12:06 am- 0.0 1.0----30.19- 36.5 41.9----
2024-02-21 12:00 am- 0.0 1.9----30.19-0.01 34.9 41.9----
2024-02-20 11:54 pm- 0.0 1.0----30.19- 34.9 41.9----
2024-02-20 11:48 pm- 0.0 1.9----30.20- 33.8 41.9----
2024-02-20 11:42 pmWSW 1.0 1.9----30.20- 33.1 41.9----
2024-02-20 11:36 pmWSW 1.0 1.9----30.20- 32.7 41.9----
2024-02-20 11:30 pmWSW 1.0 1.9----30.20- 32.9 41.7----
2024-02-20 11:24 pmWSW 1.0 1.9----30.20- 33.1 41.7----
2024-02-20 11:18 pm SW 1.9 2.9----30.20- 32.5 41.7----
2024-02-20 11:12 pm SW 2.9 4.1----30.20- 31.8 41.7----
2024-02-20 11:06 pm SW 2.9 4.1----30.20- 31.6 41.7----
2024-02-20 11:00 pm SW 2.9 2.9----30.20+0.00 31.5 41.7----
2024-02-20 10:54 pm SW 1.9 4.1----30.20- 32.0 41.7----
2024-02-20 10:48 pm SW 2.9 4.1----30.20- 33.3 41.7----
2024-02-20 10:42 pm W 1.9 2.9----30.20- 33.8 41.7----
2024-02-20 10:36 pm- 0.0 1.0----30.21- 34.0 41.7----
2024-02-20 10:30 pm- 0.0 1.9----30.21- 34.2 41.7----
2024-02-20 10:24 pm S 1.0 2.9----30.21- 33.1 41.7----
2024-02-20 10:18 pm- 0.0 2.9----30.21- 32.9 41.5----
2024-02-20 10:12 pm- 0.0 1.0----30.21- 32.9 41.5----
2024-02-20 10:06 pm- 0.0 1.0----30.21- 32.2 41.7----
2024-02-20 10:00 pm- 0.0 1.0----30.21-0.01 32.9 41.9----
2024-02-20 09:54 pm SE 1.0 1.9----30.21- 32.4 41.7----
2024-02-20 09:48 pm- 0.0 1.9----30.21- 33.1 41.7----
2024-02-20 09:42 pm- 0.0 1.0----30.21- 33.4 41.7----
2024-02-20 09:36 pm- 0.0 1.0----30.21- 33.4 41.7----
2024-02-20 09:30 pm- 0.0 1.0----30.21- 33.1 41.7----
2024-02-20 09:24 pm- 0.0 0.0----30.21- 32.7 41.7----
2024-02-20 09:18 pm- 0.0 0.0----30.21- 32.2 41.7----
2024-02-20 09:12 pm- 0.0 1.0----30.21- 32.4 41.7----
2024-02-20 09:06 pm- 0.0 0.0----30.21- 32.2 41.7----
2024-02-20 09:00 pm- 0.0 1.0----30.21-0.01 32.2 41.7----
2024-02-20 08:54 pm- 0.0 1.9----30.21- 32.7 41.7----
2024-02-20 08:48 pm- 0.0 1.0----30.21- 32.4 41.7----
2024-02-20 08:42 pm- 0.0 1.0----30.20- 32.9 41.7----
2024-02-20 08:36 pm- 0.0 1.0----30.20- 33.4 41.7----
2024-02-20 08:30 pm- 0.0 1.0----30.21- 33.3 41.7----
2024-02-20 08:24 pm- 0.0 1.0----30.21- 33.4 41.7----
2024-02-20 08:18 pmESE 1.0 1.9----30.21- 33.3 41.7----
2024-02-20 08:12 pmESE 1.0 1.9----30.21- 32.9 41.7----
2024-02-20 08:06 pmESE 1.0 1.9----30.21- 32.4 41.7----
2024-02-20 08:00 pmESE 1.9 2.9----30.21+0.00 32.4 41.7----
2024-02-20 07:54 pmESE 1.9 2.9----30.21- 32.5 41.7----
2024-02-20 07:48 pm E 1.9 2.9----30.21- 32.9 41.7----
2024-02-20 07:42 pm E 2.9 2.9----30.21- 32.4 41.9----
2024-02-20 07:36 pm E 2.9 4.1----30.21- 32.5 41.9----
2024-02-20 07:30 pm E 2.9 4.1----30.21- 32.7 41.9----
2024-02-20 07:24 pmENE 4.1 4.1----30.21- 33.6 41.9----
2024-02-20 07:18 pm E 4.1 5.1----30.21- 33.6 41.9----
2024-02-20 07:12 pm E 5.1 6.0----30.21- 33.1 41.9----
2024-02-20 07:06 pmENE 6.0 7.0----30.22- 33.3 41.7----
2024-02-20 07:00 pmENE 6.0 7.0----30.22+0.00 34.0 41.7----
2024-02-20 06:54 pm E 7.0 8.0----30.21- 34.5 41.9----
2024-02-20 06:48 pmENE 8.0 8.9----30.22- 34.9 41.9----
2024-02-20 06:42 pmENE 7.0 8.9----30.22- 35.4 41.7----
2024-02-20 06:36 pmENE 8.0 8.9----30.22- 35.2 41.7----
2024-02-20 06:30 pmENE 7.0 8.0----30.22- 36.0 41.7----
2024-02-20 06:24 pmENE 7.0 8.9----30.21- 36.5 41.7----
2024-02-20 06:18 pm E 8.9 9.9----30.21- 36.5 41.7----
2024-02-20 06:00 pmENE 8.0 8.9----30.22-0.01 36.3 41.5----
2024-02-20 05:54 pm E 6.0 7.0----30.22- 36.3 41.5----
2024-02-20 05:48 pmENE 6.0 8.0----30.22- 36.7 41.5----
2024-02-20 05:42 pmENE 7.0 8.0----30.22- 36.9 41.5----
2024-02-20 05:36 pm NE 7.0 8.9----30.22- 37.0 41.7----
2024-02-20 05:30 pm NE 7.0 8.0----30.22- 37.2 41.5----
2024-02-20 05:24 pmNNE 7.0 8.0----30.22- 37.4 41.5----
2024-02-20 05:18 pm NE 7.0 8.9----30.21- 37.6 41.5----
2024-02-20 05:12 pm NE 7.0 8.9----30.21- 37.6 41.5----
2024-02-20 05:06 pm NE 5.1 6.0----30.21- 37.8 41.5----
2024-02-20 05:00 pmENE 6.0 8.0----30.21-0.03 38.1 41.5----
2024-02-20 04:54 pm NE 8.0 8.9----30.21- 37.9 41.4----